CZ-6A DEB

Satellite information

Favourite Embed

Satellite Type and Status

DEBRISIN ORBIT

Key statistics

Satellite CZ-6A DEB at a glance.

Uptime

967

Days in orbit

Revolutions

≈ 14.5

Per day

Orbit

SSO

Sun Synchronous Orbit

Inclination

98.7

Latest

Satellite identification and parameters

Extended collection of information and parameters for CZ-6A DEB.

Object identification

Identified? True

Debris? True

Object name: CZ-6A DEB

International designator: 2022-151YA

Object number (NORAD): 55528

Object ID (CCSDS): 55528

Country: PEOPLES REPUBLIC OF CHINA (PRC)

Current information (Y/N): Y

RCS size: SMALL

Orbital parameters

Period: 99.399 minutes

Inclination: 98.6658 deg

SMA: 7108.018 km

Apoapsis: 781.86 km

Periapsis: 677.906 km

RAAN: 223.6555 deg

Eccentricy: 0.0073124

Argument of periapsis: 225.8039 deg

Mean anomaly: 133.7132 deg

Mean motion: 14.48705115 rev/day

Mean motion (dot): 0.00003072 rev/day2

B* drag term: 0.00080076 1/REarth

Two-line elements (TLE)

Creation date: July 4, 2025, 6:39 p.m.

Reference frame: TEME

Reference center: EARTH

Epoch: July 4, 2025, 1:23 a.m. UTC

TLE line 0: 0 CZ-6A DEB

TLE line 1: 1 55528U 22151YA 25185.05817250 .00003072 00000-0 80076-3 0 9991

TLE line 2: 2 55528 98.6658 223.6555 0073124 225.8039 133.7132 14.48705115133567

Live tracking on map

Real-time ground track for satellite CZ-6A DEB.

In-orbit conjunctions

A list of the most updated potential collisions computed for object CZ-6A DEB.

Target Orbit TCA Probability of collision Miss distance Type
CZ-6A DEB LEO 2025-02-27 00:09:53 0.0001544479 592.0 (m) DEBRIS
CZ-6A DEB LEO 2025-01-03 01:11:48 0.0001336036 220.0 (m) DEBRIS
COSMOS 1954 LEO 2024-10-03 01:37:56 0.0001115407 300.0 (m) PAYLOAD

Associated space launch

Chinese satellite reported for atmospheric/ocean/environmental/spatial parameter research purposes, details TBD.

CZ-6A DEB was lifted into orbit during the mission ‘Long March 6A | Yunhai 3’, on board a Long March 6A space rocket.

The launch took place on Nov. 11, 2022, 10:52 p.m. from Launch Complex 9A.

For more information about the launch, click the button.

Launch to space Long March 6A | Yunhai 3
Long March 6A | Yunhai 3

Agency: N/A

Status: Launch Successful

Launch date: Nov. 11, 2022, 10:52 p.m. UTC

Rocket: Long March 6A

Launch pad: Launch Complex 9A

Location: Taiyuan Satellite Launch Center, People's Republic of China

...

Latest news about this satellite

There are no fresh news available about this satellite. Check back as we update our databases every day.


Newsletter sign-up

Weekly statistics, charts and insights to help you stay on top of the space industry.